Track OPS 5117 (NAVSTAR 5) now! OPS 5117 (NAVSTAR 5) is classified as:
1 11690U 80011A 18108.39926999 +.00000074 +00000-0 +00000-0 0 9992 2 11690 063.2630 141.0878 0453385 195.7396 256.2911 02.00577132293924